H1 CPF 2 NER 2021 1 1 9 001 01 glonass128 H2 1106401 9128 37867 2021 1 1 0 0 0 2021 1 4 23 45 0 900 1 1 0 0 0 1 H9 10 0 59215 0.00000 0 20868508.359 12802211.228 -7224876.485 10 0 59215 900.00000 0 21511827.241 13120541.771 -4117688.314 10 0 59215 1800.00000 0 21854956.101 13175965.351 -930716.125 10 0 59215 2700.00000 0 21861099.679 13009664.348 2274285.879 10 0 59215 3600.00000 0 21504431.562 12670267.853 5435280.998 10 0 59215 4500.00000 0 20771299.359 12211589.467 8491140.191 10 0 59215 5400.00000 0 19660938.023 11690164.270 11382810.414 10 0 59215 6300.00000 0 18185662.228 11162688.371 14054439.691 10 0 59215 7200.00000 0 16370530.327 10683468.050 16454438.500 10 0 59215 8100.00000 0 14252493.913 10301984.560 18536458.628 10 0 59215 9000.00000 0 11879067.737 10060675.578 20260272.309 10 0 59215 9900.00000 0 9306574.179 9993025.122 21592536.225 10 0 59215 10800.00000 0 6598033.331 10122041.035 22507427.140 10 0 59215 11700.00000 0 3820783.986 10459183.318 22987137.963 10 0 59215 12600.00000 0 1043931.740 11003788.301 23022225.272 10 0 59215 13500.00000 0 -1664272.686 11743013.560 22611801.651 10 0 59215 14400.00000 0 -4239018.694 12652307.384 21763568.567 10 0 59215 15300.00000 0 -6621379.408 13696385.179 20493687.967 10 0 59215 16200.00000 0 -8760513.790 14830674.348 18826493.439 10 0 59215 17100.00000 0 -10615536.666 16003169.654 16794044.400 10 0 59215 18000.00000 0 -12156978.927 17156623.599 14435529.719 10 0 59215 18900.00000 0 -13367776.656 18230981.771 11796530.064 10 0 59215 19800.00000 0 -14243746.926 19165962.074 8928151.165 10 0 59215 20700.00000 0 -14793529.132 19903669.626 5886043.309 10 0 59215 21600.00000 0 -15037993.122 20391136.691 2729324.974 10 0 59215 22500.00000 0 -15009138.023 20582679.124 -480568.818 10 0 59215 23400.00000 0 -14748527.558 20441967.772 -3681090.635 10 0 59215 24300.00000 0 -14305327.911 19943724.784 -6809812.861 10 0 59215 25200.00000 0 -13734031.706 19074970.346 -9805662.479 10 0 59215 26100.00000 0 -13091965.645 17835764.478 -12610132.372 10 0 59215 27000.00000 0 -12436689.091 16239410.174 -15168443.469 10 0 59215 27900.00000 0 -11823395.840 14312107.407 -17430633.052 10 0 59215 28800.00000 0 -11302431.295 12092071.409 -19352546.071 10 0 59215 29700.00000 0 -10917032.206 9628151.772 -20896708.713 10 0 59215 30600.00000 0 -10701386.312 6978010.431 -22033066.210 10 0 59215 31500.00000 0 -10679095.124 4205935.606 -22739569.977 10 0 59215 32400.00000 0 -10862105.363 1380384.088 -23002602.715 10 0 59215 33300.00000 0 -11250154.102 -1428644.437 -22817233.726 10 0 59215 34200.00000 0 -11830750.331 -4152290.498 -22187300.359 10 0 59215 35100.00000 0 -12579692.549 -6725463.051 -21125315.222 10 0 59215 36000.00000 0 -13462099.025 -9089303.322 -19652202.354 10 0 59215 36900.00000 0 -14433905.646 -11193382.243 -17796868.950 10 0 59215 37800.00000 0 -15443766.540 -12997541.293 -15595622.479 10 0 59215 38700.00000 0 -16435275.962 -14473302.042 -13091445.839 10 0 59215 39600.00000 0 -17349416.665 -15604788.057 -10333145.959 10 0 59215 40500.00000 0 -18127130.909 -16389123.637 -7374393.433 10 0 59215 41400.00000 0 -18711905.589 -16836295.842 -4272672.586 10 0 59215 42300.00000 0 -19052262.848 -16968488.613 -1088163.042 10 0 59215 43200.00000 0 -19104051.998 -16818919.747 2117425.350 10 0 59215 44100.00000 0 -18832447.289 -16430231.857 5282041.735 10 0 59215 45000.00000 0 -18213568.705 -15852506.560 8344484.916 10 0 59215 45900.00000 0 -17235658.868 -15140986.340 11245573.266 10 0 59215 46800.00000 0 -15899767.640 -14353600.012 13929272.381 10 0 59215 47700.00000 0 -14219916.374 -13548395.326 16343760.013 10 0 59215 48600.00000 0 -12222735.055 -12780985.511 18442409.338 10 0 59215 49500.00000 0 -9946586.916 -12102115.557 20184673.320 10 0 59215 50400.00000 0 -7440215.920 -11555448.819 21536854.643 10 0 59215 51300.00000 0 -4760971.586 -11175665.286 22472747.884 10 0 59215 52200.00000 0 -1972682.547 -10986950.107 22974142.641 10 0 59215 53100.00000 0 856735.428 -11001935.116 23031178.511 10 0 59215 54000.00000 0 3657840.657 -11221137.719 22642545.190 10 0 59215 54900.00000 0 6362292.529 -11632921.459 21815523.271 10 0 59215 55800.00000 0 8905437.652 -12213981.300 20565863.812 10 0 59215 56700.00000 0 11228749.820 -12930335.235 18917507.371 10 0 59215 57600.00000 0 13282023.664 -13738782.871 16902145.838 10 0 59215 58500.00000 0 15025231.201 -14588772.002 14558633.313 10 0 59215 59400.00000 0 16429963.737 -15424596.716 11932255.183 10 0 59215 60300.00000 0 17480398.163 -16187836.036 9073867.440 10 0 59215 61200.00000 0 18173745.922 -16819931.088 6038921.392 10 0 59215 62100.00000 0 18520164.506 -17264791.988 2886391.588 10 0 59215 63000.00000 0 18542133.878 -17471323.412 -322372.632 10 0 59215 63900.00000 0 18273323.080 -17395760.330 -3524849.238 10 0 59215 64800.00000 0 17756994.340 -17003712.779 -6658574.956 10 0 59215 65700.00000 0 17044012.233 -16271830.402 -9662380.570 10 0 59215 66600.00000 0 16190542.803 -15189013.516 -12477604.031 10 0 59215 67500.00000 0 15255541.349 -13757116.802 -15049255.694 10 0 59215 68400.00000 0 14298136.960 -11991113.584 -17327110.881 10 0 59215 69300.00000 0 13375026.451 -9918712.070 -19266706.558 10 0 59215 70200.00000 0 12537989.946 -7579438.624 -20830221.207 10 0 59215 71100.00000 0 11831634.843 -5023226.183 -21987219.733 10 0 59215 72000.00000 0 11291464.769 -2308567.295 -22715248.336 10 0 59215 72900.00000 0 10942355.733 499690.245 -23000267.801 10 0 59215 73800.00000 0 10797503.745 3332812.171 -22836917.287 10 0 59215 74700.00000 0 10857887.629 6120806.842 -22228604.329 10 0 59215 75600.00000 0 11112268.390 8795104.363 -21187420.542 10 0 59215 76500.00000 0 11537723.443 11291173.803 -19733886.020 10 0 59215 77400.00000 0 12100691.199 13550969.589 -17896528.891 10 0 59215 78300.00000 0 12758479.898 15525106.075 -15711309.681 10 0 59215 79200.00000 0 13461175.175 17174671.142 -13220903.048 10 0 59215 80100.00000 0 14153864.225 18472605.200 -10473852.139 10 0 59215 81000.00000 0 14779081.599 19404590.628 -7523613.076 10 0 59215 81900.00000 0 15279372.710 19969417.326 -4427508.926 10 0 59215 82800.00000 0 15599866.787 20178812.012 -1245614.084 10 0 59215 83700.00000 0 15690751.067 20056741.250 1960409.008 10 0 59215 84600.00000 0 15509542.689 19638219.931 5128498.416 10 0 59215 85500.00000 0 15023063.602 18967677.100 8197383.789 10 0 59216 0.00000 0 14209036.558 18096949.036 11107757.709 10 0 59216 900.00000 0 13057235.654 17082984.380 13803406.106 10 0 59216 1800.00000 0 11570145.208 15985357.272 16232276.344 10 0 59216 2700.00000 0 9763097.512 14863692.462 18347465.107 10 0 59216 3600.00000 0 7663885.470 13775108.365 20108107.922 10 0 59216 4500.00000 0 5311864.022 12771784.148 21480154.993 10 0 59216 5400.00000 0 2756576.685 11898750.740 22437019.904 10 0 59216 6300.00000 0 55961.967 11191996.756 22960089.764 10 0 59216 7200.00000 0 -2725788.426 10676967.471 23039087.619 10 0 59216 8100.00000 0 -5520633.609 10367518.998 22672280.252 10 0 59216 9000.00000 0 -8259253.028 10265371.504 21866526.868 10 0 59216 9900.00000 0 -10873677.434 10360085.125 20637166.619 10 0 59216 10800.00000 0 -13299874.473 10629560.847 19007745.496 10 0 59216 11700.00000 0 -15480183.070 11041047.187 17009585.837 10 0 59216 12600.00000 0 -17365496.139 11552612.343 14681204.525 10 0 59216 13500.00000 0 -18917100.832 12115021.862 12067588.871 10 0 59216 14400.00000 0 -20108098.868 12673944.360 9219342.092 10 0 59216 15300.00000 0 -20924346.333 13172393.321 6191713.351 10 0 59216 16200.00000 0 -21364872.082 13553302.162 3043530.054 10 0 59216 17100.00000 0 -21441755.607 13762123.169 -163947.323 10 0 59216 18000.00000 0 -21179468.059 13749338.972 -3368225.261 10 0 59216 18900.00000 0 -20613703.277 13472778.154 -6506807.820 10 0 59216 19800.00000 0 -19789747.732 12899634.346 -9518432.419 10 0 59216 20700.00000 0 -18760458.475 12008100.472 -12344284.714 10 0 59216 21600.00000 0 -17583935.473 10788546.120 -14929166.864 10 0 59216 22500.00000 0 -16320988.128 9244185.655 -17222594.308 10 0 59216 23400.00000 0 -15032504.832 7391206.750 -19179797.736 10 0 59216 24300.00000 0 -13776838.588 5258352.382 -20762609.236 10 0 59216 25200.00000 0 -12607320.798 2885972.974 -21940214.281 10 0 59216 26100.00000 0 -11570009.542 324588.314 -22689754.324 10 0 59216 27000.00000 0 -10701768.085 -2366980.160 -22996768.299 10 0 59216 27900.00000 0 -10028754.745 -5123827.923 -22855464.887 10 0 59216 28800.00000 0 -9565387.143 -7877443.097 -22268821.102 10 0 59216 29700.00000 0 -9313823.215 -10558335.259 -21248506.507 10 0 59216 30600.00000 0 -9263978.972 -13098707.149 -19814635.863 10 0 59216 31500.00000 0 -9394080.087 -15435057.654 -17995356.547 10 0 59216 32400.00000 0 -9671721.630 -17510608.009 -15826280.221 10 0 59216 33300.00000 0 -10055388.881 -19277451.066 -13349771.173 10 0 59216 34200.00000 0 -10496372.961 -20698335.471 -10614106.516 10 0 59216 35100.00000 0 -10940998.657 -21748012.387 -7672525.564 10 0 59216 36000.00000 0 -11333069.180 -22414091.007 -4582187.731 10 0 59216 36900.00000 0 -11616423.946 -22697369.703 -1403059.784 10 0 59216 37800.00000 0 -11737501.334 -22611631.682 1803245.664 10 0 59216 38700.00000 0 -11647798.614 -22182916.220 4974658.028 10 0 59216 39600.00000 0 -11306126.129 -21448298.053 8049840.260 10 0 59216 40500.00000 0 -10680561.723 -20454227.680 10969361.719 10 0 59216 41400.00000 0 -9750024.182 -19254502.931 13676830.866 10 0 59216 42300.00000 0 -8505400.462 -17907956.990 16119967.120 10 0 59216 43200.00000 0 -6950179.860 -16475959.107 18251592.883 10 0 59216 44100.00000 0 -5100568.518 -15019831.479 20030528.214 10 0 59216 45000.00000 0 -2985078.829 -13598288.764 21422372.537 10 0 59216 45900.00000 0 -643609.465 -12265005.456 22400159.808 10 0 59216 46800.00000 0 1873947.681 -11066410.932 22944875.661 10 0 59216 47700.00000 0 4509518.204 -10039802.707 23045827.219 10 0 59216 48600.00000 0 7199001.242 -9211855.551 22700858.617 10 0 59216 49500.00000 0 9874684.436 -8597588.154 21916407.587 10 0 59216 50400.00000 0 12467820.377 -8199830.640 20707400.927 10 0 59216 51300.00000 0 14911260.123 -8009215.889 19096989.288 10 0 59216 52200.00000 0 17142036.336 -8004696.277 17116124.336 10 0 59216 53100.00000 0 19103789.683 -8154565.740 14802984.267 10 0 59216 54000.00000 0 20748937.854 -8417945.935 12202256.478 10 0 59216 54900.00000 0 22040496.257 -8746675.483 9364289.192 10 0 59216 55800.00000 0 22953473.130 -9087523.833 6344126.828 10 0 59216 56700.00000 0 23475779.080 -9384636.817 3200446.705 10 0 59216 57600.00000 0 23608611.092 -9582110.287 -5582.788 10 0 59216 58500.00000 0 23366293.077 -9626581.918 -3211500.040 10 0 59216 59400.00000 0 22775578.245 -9469729.665 -6354779.890 10 0 59216 60300.00000 0 21874441.787 -9070568.630 -9374069.759 10 0 59216 61200.00000 0 20710414.477 -8397446.293 -12210406.199 10 0 59216 62100.00000 0 19338527.959 -7429648.732 -14808386.071 10 0 59216 63000.00000 0 17818959.417 -6158547.037 -17117267.507 10 0 59216 63900.00000 0 16214476.535 -4588233.079 -19091977.133 10 0 59216 64800.00000 0 14587792.276 -2735615.895 -20694002.469 10 0 59216 65700.00000 0 12998942.677 -629973.287 -21892150.996 10 0 59216 66600.00000 0 11502799.688 1688023.049 -22663160.469 10 0 59216 67500.00000 0 10146824.719 4167768.015 -22992148.621 10 0 59216 68400.00000 0 8969157.774 6750607.575 -22872893.900 10 0 59216 69300.00000 0 7997122.199 9372067.549 -22307942.654 10 0 59216 70200.00000 0 7246206.752 11964332.737 -21308541.865 10 0 59216 71100.00000 0 6719566.007 14458872.148 -19894400.066 10 0 59216 72000.00000 0 6408057.817 16789100.237 -18093282.628 10 0 59216 72900.00000 0 6290813.569 18892963.114 -15940450.749 10 0 59216 73800.00000 0 6336314.475 20715342.334 -13477956.421 10 0 59216 74700.00000 0 6503925.900 22210176.908 -10753808.458 10 0 59216 75600.00000 0 6745822.703 23342216.544 -7821026.807 10 0 59216 76500.00000 0 7009222.491 24088334.908 -4736604.394 10 0 59216 77400.00000 0 7238831.272 24438350.238 -1560397.314 10 0 59216 78300.00000 0 7379397.590 24395321.511 1646034.840 10 0 59216 79200.00000 0 7378267.274 23975310.124 4820616.075 10 0 59216 80100.00000 0 7187831.461 23206619.155 7901945.834 10 0 59216 81000.00000 0 6767765.474 22128543.766 10830473.267 10 0 59216 81900.00000 0 6086965.224 20789686.077 13549632.342 10 0 59216 82800.00000 0 5125100.641 19245905.447 16006917.116 10 0 59216 83700.00000 0 3873721.588 17557989.548 18154878.045 10 0 59216 84600.00000 0 2336870.104 15789142.616 19952021.781 10 0 59216 85500.00000 0 531173.065 14002394.280 21363598.716 10 0 59217 0.00000 0 -1514589.572 12258035.271 22362264.576 10 0 59217 900.00000 0 -3760425.073 10611185.051 22928604.594 10 0 59217 1800.00000 0 -6156538.807 9109590.445 23051510.624 10 0 59217 2700.00000 0 -8645161.340 7791746.511 22728404.364 10 0 59217 3600.00000 0 -11162717.526 6685415.471 21965301.808 10 0 59217 4500.00000 0 -13642251.130 5806606.159 20776716.629 10 0 59217 5400.00000 0 -16016006.775 5159056.127 19185402.837 10 0 59217 6300.00000 0 -18218064.192 4734238.936 17221939.617 10 0 59217 7200.00000 0 -20186916.579 4511897.483 14924164.182 10 0 59217 8100.00000 0 -21867886.384 4461082.373 12336461.324 10 0 59217 9000.00000 0 -23215277.539 4541653.114 9508921.245 10 0 59217 9900.00000 0 -24194173.164 4706180.132 6496380.395 10 0 59217 10800.00000 0 -24781801.937 4902168.056 3357362.656 10 0 59217 11700.00000 0 -24968413.843 5074506.421 152940.953 10 0 59217 12600.00000 0 -24757626.412 5168043.428 -3054458.342 10 0 59217 13500.00000 0 -24166225.008 5130172.352 -6202284.096 10 0 59217 14400.00000 0 -23223424.075 4913318.906 -9229096.853 10 0 59217 15300.00000 0 -21969619.629 4477221.606 -12075786.990 10 0 59217 16200.00000 0 -20454685.394 3790905.676 -14686748.785 10 0 59217 17100.00000 0 -18735884.909 2834264.058 -17010985.455 10 0 59217 18000.00000 0 -16875488.744 1599176.082 -19003121.588 10 0 59217 18900.00000 0 -14938198.656 90114.352 -20624301.713 10 0 59217 19800.00000 0 -12988488.746 -1675787.389 -21842956.385 10 0 59217 20700.00000 0 -11087977.018 -3669209.150 -22635420.212 10 0 59217 21600.00000 0 -9292938.980 -5849642.754 -22986389.735 10 0 59217 22500.00000 0 -7652068.286 -8166870.981 -22889212.692 10 0 59217 23400.00000 0 -6204578.401 -10562865.104 -22346003.837 10 0 59217 24300.00000 0 -4978724.059 -12974020.583 -21367586.228 10 0 59217 25200.00000 0 -3990802.956 -15333636.561 -19973260.506 10 0 59217 26100.00000 0 -3244677.374 -17574534.726 -18190408.090 10 0 59217 27000.00000 0 -2731833.095 -19631707.801 -16053937.554 10 0 59217 27900.00000 0 -2431970.109 -21444887.033 -13605586.299 10 0 59217 28800.00000 0 -2314097.306 -22960921.918 -10893092.455 10 0 59217 29700.00000 0 -2338082.200 -24135873.812 -7969254.184 10 0 59217 30600.00000 0 -2456587.942 -24936737.416 -4890895.525 10 0 59217 31500.00000 0 -2617314.094 -25342720.013 -1717759.531 10 0 59217 32400.00000 0 -2765445.337 -25346027.074 1488649.538 10 0 59217 33300.00000 0 -2846204.229 -24952123.519 4666252.551 10 0 59217 34200.00000 0 -2807400.326 -24179461.703 7753587.670 10 0 59217 35100.00000 0 -2601868.676 -23058689.211 10690986.029 10 0 59217 36000.00000 0 -2189695.796 -21631370.755 13421709.235 10 0 59217 36900.00000 0 -1540140.421 -19948278.210 15893028.025 10 0 59217 37800.00000 0 -633169.169 -18067320.095 18057222.823 10 0 59217 38700.00000 0 539456.782 -16051196.136 19872488.605 10 0 59217 39600.00000 0 1973589.440 -13964873.382 21303728.227 10 0 59217 40500.00000 0 3652621.517 -11872987.214 22323220.446 10 0 59217 41400.00000 0 5547938.058 -9837273.359 22911150.991 10 0 59217 42300.00000 0 7619875.195 -7914135.729 23055997.102 10 0 59217 43200.00000 0 9819148.650 -6152449.325 22754758.405 10 0 59217 44100.00000 0 12088695.423 -4591688.089 22013029.220 10 0 59217 45000.00000 0 14365854.991 -3260454.694 20844909.887 10 0 59217 45900.00000 0 16584802.229 -2175473.122 19272757.291 10 0 59217 46800.00000 0 18679133.262 -1341086.274 17326777.372 10 0 59217 47700.00000 0 20584498.376 -749280.398 15044465.313 10 0 59217 48600.00000 0 22241173.232 -380236.388 12469901.915 10 0 59217 49500.00000 0 23596461.246 -203386.076 9652917.650 10 0 59217 50400.00000 0 24606825.849 -178930.296 6648138.901 10 0 59217 51300.00000 0 25239661.934 -259755.587 3513933.664 10 0 59217 52200.00000 0 25474630.147 -393668.927 311276.619 10 0 59217 53100.00000 0 25304495.668 -525855.707 -2897444.142 10 0 59217 54000.00000 0 24735433.951 -601455.801 -6049654.714 10 0 59217 54900.00000 0 23786788.565 -568146.856 -9083832.001 10 0 59217 55800.00000 0 22490289.859 -378623.036 -11940723.367 10 0 59217 56700.00000 0 20888766.582 7138.501 -14564523.495 10 0 59217 57600.00000 0 19034404.614 619922.203 -16903983.433 10 0 59217 58500.00000 0 16986626.755 1479715.223 -18913428.184 10 0 59217 59400.00000 0 14809683.864 2594613.257 -20553661.437 10 0 59217 60300.00000 0 12570060.059 3960239.190 -21792738.675 10 0 59217 61200.00000 0 10333802.477 5559700.202 -22606592.877 10 0 59217 62100.00000 0 8163888.959 7364085.758 -22979500.597 10 0 59217 63000.00000 0 6117744.838 9333485.518 -22904379.706 10 0 59217 63900.00000 0 4245013.213 11418483.873 -22382913.812 10 0 59217 64800.00000 0 2585671.543 13562067.639 -21425502.114 10 0 59217 65700.00000 0 1168572.177 15701866.008 -20051036.971 10 0 59217 66600.00000 0 10465.997 17772627.983 -18286515.049 10 0 59217 67500.00000 0 -884452.539 19708832.946 -16166491.068 10 0 59217 68400.00000 0 -1524462.883 21447324.738 -13732386.183 10 0 59217 69300.00000 0 -1929705.072 22929859.117 -11031665.802 10 0 59217 70200.00000 0 -2131064.536 24105458.553 -8116903.913 10 0 59217 71100.00000 0 -2168604.887 24932476.879 -5044752.964 10 0 59217 72000.00000 0 -2089617.071 25380288.797 -1874840.012 10 0 59217 72900.00000 0 -1946368.955 25430535.256 1331389.147 10 0 59217 73800.00000 0 -1793651.354 25077874.466 4511855.481 10 0 59217 74700.00000 0 -1686224.439 24330208.939 7605039.121 10 0 59217 75600.00000 0 -1676272.023 23208380.679 10551156.356 10 0 59217 76500.00000 0 -1810970.360 21745348.489 13293299.490 10 0 59217 77400.00000 0 -2130272.853 19984882.430 15778518.799 10 0 59217 78300.00000 0 -2665002.847 17979830.001 17958827.322 10 0 59217 79200.00000 0 -3435333.750 15790025.676 19792110.753 10 0 59217 80100.00000 0 -4449719.722 13479929.685 21242926.535 10 0 59217 81000.00000 0 -5704321.799 11116092.542 22283178.274 10 0 59217 81900.00000 0 -7182954.200 8764548.566 22892653.710 10 0 59217 82800.00000 0 -8857554.462 6488244.563 23059416.594 10 0 59217 83700.00000 0 -10689159.878 4344608.234 22780045.182 10 0 59217 84600.00000 0 -12629352.159 2383355.431 22059712.358 10 0 59217 85500.00000 0 -14622112.934 644626.028 20912104.863 10 0 59218 0.00000 0 -16606015.716 -842474.937 19359181.697 10 0 59218 900.00000 0 -18516665.714 -2060870.180 17430774.123 10 0 59218 1800.00000 0 -20289287.761 -3005995.873 15164033.467 10 0 59218 2700.00000 0 -21861355.621 -3685757.870 12602734.177 10 0 59218 3600.00000 0 -23175153.742 -4119960.663 9796444.221 10 0 59218 4500.00000 0 -24180163.351 -4339230.709 6799576.815 10 0 59218 5400.00000 0 -24835171.933 -4383479.068 3670340.735 10 0 59218 6300.00000 0 -25110015.567 -4299967.437 469608.928 10 0 59218 7200.00000 0 -24986878.486 -4141059.312 -2740272.355 10 0 59218 8100.00000 0 -24461092.696 -3961752.081 -5896709.997 10 0 59218 9000.00000 0 -23541401.543 -3817095.977 -8938100.778 10 0 59218 9900.00000 0 -22249674.114 -3759611.168 -11805052.455 10 0 59218 10800.00000 0 -20620081.086 -3836814.889 -14441563.332 10 0 59218 11700.00000 0 -18697765.980 -4088966.057 -16796135.236 10 0 59218 12600.00000 0 -16537067.769 -4547125.480 -18822796.167 10 0 59218 13500.00000 0 -14199370.211 -5231616.128 -20482011.087 10 0 59218 14400.00000 0 -11750669.320 -6150950.514 -21741461.950 10 0 59218 15300.00000 0 -9258962.420 -7301271.794 -22576681.045 10 0 59218 16200.00000 0 -6791569.532 -8666332.916 -22971525.231 10 0 59218 17100.00000 0 -4412500.236 -10218014.808 -22918482.191 10 0 59218 18000.00000 0 -2179976.800 -11917361.358 -22418803.511 10 0 59218 18900.00000 0 -144217.020 -13716086.883 -21482463.149 10 0 59218 19800.00000 0 1654431.452 -15558491.754 -20127943.412 10 0 59218 20700.00000 0 3186928.792 -17383704.632 -18381854.105 10 0 59218 21600.00000 0 4436494.931 -19128156.325 -16278393.738 10 0 59218 22500.00000 0 5399038.725 -20728180.821 -13858664.689 10 0 59218 23400.00000 0 6083049.518 -22122634.108 -11169856.989 10 0 59218 24300.00000 0 6508959.038 -23255421.114 -8264317.725 10 0 59218 25200.00000 0 6708003.568 -24077825.477 -5198525.015 10 0 59218 26100.00000 0 6720637.115 -24550545.457 -2031987.203 10 0 59218 27000.00000 0 6594564.663 -24645352.038 1173911.037 10 0 59218 27900.00000 0 6382480.037 -24346301.340 4357093.321 10 0 59218 28800.00000 0 6139604.596 -23650452.154 7455984.195 10 0 59218 29700.00000 0 5921130.743 -22568060.070 10410687.395 10 0 59218 30600.00000 0 5779677.573 -21122241.270 13164128.044 10 0 59218 31500.00000 0 5762864.944 -19348120.756 15663137.887 10 0 59218 32400.00000 0 5911106.953 -17291500.726 17859464.266 10 0 59218 33300.00000 0 6255716.440 -15007104.062 19710685.038 10 0 59218 34200.00000 0 6817399.178 -12556464.987 21181013.395 10 0 59218 35100.00000 0 7605200.423 -10005552.882 22241978.666 10 0 59218 36000.00000 0 8615948.088 -7422225.821 22872971.186 10 0 59218 36900.00000 0 9834216.616 -4873617.231 23061641.519 10 0 59218 37800.00000 0 11232814.624 -2423561.687 22804146.600 10 0 59218 38700.00000 0 12773778.089 -130164.429 22105237.699 10 0 59218 39600.00000 0 14409830.186 1956386.234 20978187.569 10 0 59218 40500.00000 0 16086249.630 3795674.063 19444556.663 10 0 59218 41400.00000 0 17743072.274 5358501.040 17533800.975 10 0 59218 42300.00000 0 19317536.281 6627864.231 15282726.906 10 0 59218 43200.00000 0 20746670.416 7599422.059 12734801.382 10 0 59218 44100.00000 0 21969918.051 8281429.561 9939328.415 10 0 59218 45000.00000 0 22931686.901 8694144.166 6950506.333 10 0 59218 45900.00000 0 23583716.631 8868725.909 3826382.657 10 0 59218 46800.00000 0 23887163.168 8845677.621 627726.289 10 0 59218 47700.00000 0 23814309.714 8672890.567 -2583160.924 10 0 59218 48600.00000 0 23349829.813 8403378.448 -5743669.398 10 0 59218 49500.00000 0 22491546.525 8092796.622 -8792118.624 10 0 59218 50400.00000 0 21250653.259 7796853.195 -11668979.582 10 0 59218 51300.00000 0 19651384.971 7568723.783 -14318056.947 10 0 59218 52200.00000 0 17730152.175 7456581.884 -16687605.929 10 0 59218 53100.00000 0 15534173.628 7501351.990 -18731359.925 10 0 59218 54000.00000 0 13119665.211 7734782.878 -20409447.375 10 0 59218 54900.00000 0 10549661.673 8177924.586 -21689178.694 10 0 59218 55800.00000 0 7891563.726 8840074.859 -22545687.246 10 0 59218 56700.00000 0 5214514.366 9718240.395 -22962411.711 10 0 59218 57600.00000 0 2586715.323 10797135.788 -22931410.807 10 0 59218 58500.00000 0 72796.637 12049719.825 -22453504.967 10 0 59218 59400.00000 0 -2268650.562 13438245.677 -21538243.383 10 0 59218 60300.00000 0 -4387275.490 14915779.660 -20203698.333 10 0 59218 61200.00000 0 -6242812.549 16428123.364 -18476092.312 10 0 59218 62100.00000 0 -7806494.428 17916057.113 -16389266.711 10 0 59218 63000.00000 0 -9061976.971 19317809.454 -13984003.769 10 0 59218 63900.00000 0 -10005740.013 20571648.175 -11307216.386 10 0 59218 64800.00000 0 -10646950.749 21618483.741 -8411022.644 10 0 59218 65700.00000 0 -11006798.640 22404375.986 -5351723.935 10 0 59218 66600.00000 0 -11117332.874 22882839.375 -2188707.265 10 0 59218 67500.00000 0 -11019853.940 23016851.092 1016706.614 10 0 59218 68400.00000 0 -10762929.102 22780478.940 4202446.899 10 0 59218 69300.00000 0 -10400116.682 22160062.196 7306885.536 10 0 59218 70200.00000 0 -9987495.645 21154897.292 10270016.731 10 0 59218 71100.00000 0 -9581104.472 19777400.748 13034601.396 10 0 59218 72000.00000 0 -9234396.472 18052743.305 15547255.653 10 0 59218 72900.00000 0 -8995817.506 16017970.752 17759463.944 10 0 59218 73800.00000 0 -8906606.671 13720647.684 19628498.914 10 0 59218 74700.00000 0 -8998911.059 11217079.674 21118231.946 10 0 59218 75600.00000 0 -9294292.710 8570186.105 22199820.286 10 0 59218 76500.00000 0 -9802689.845 5847109.862 22852258.792 10 0 59218 77400.00000 0 -10521876.035 3116660.675 23062786.435 10 0 59218 78300.00000 0 -11437440.773 446695.538 22827140.041 10 0 59218 79200.00000 0 -12523293.822 -2098457.686 22149650.056 10 0 59218 80100.00000 0 -13742674.345 -4460428.656 21043175.557 10 0 59218 81000.00000 0 -15049625.124 -6588985.850 19528878.293 10 0 59218 81900.00000 0 -16390872.832 -8443881.159 17635838.178 10 0 59218 82800.00000 0 -17708038.094 -9996281.280 15400515.485 10 0 59218 83700.00000 0 -18940084.771 -11229725.995 12866067.849 10 0 59218 84600.00000 0 -20025907.092 -12140572.532 10081533.111 10 0 59218 85500.00000 0 -20906946.487 -12737906.219 7100892.077 99